Weather History for Crane Lake, MN

Change the Weather History Date:

Tuesday, June 25, 2013

  Actual Average Record
Temperature  
Mean Temperature 70 °F -  
Max Temperature 89 °F 72 °F 95 °F (2001)
Min Temperature 50 °F 51 °F 39 °F (2012)
Cooling Degree Days 4    
Growing Degree Days 20 (Base 50)    
Moisture  
Dew Point 56 °F    
Average Humidity 67    
Maximum Humidity 94    
Minimum Humidity 29    
Precipitation  
Precipitation 0.00 in - - ()
Sea Level Pressure  
Sea Level Pressure 29.80 in    
Wind  
Wind Speed 1 mph (South)    
Max Wind Speed 8 mph    
Max Gust Speed -    
Visibility 10 miles    
Events      
Averages and records for this station are not official NWS values.
T = Trace of Precipitation, MM = Missing Value Source: NWS Daily Summary

Daily Weather History Graph

Daily Weather History Graph

Search for Another Location

Airport:

Trip Planner

Search our weather history database for the weather conditions in past years. The results will help you decide how hot, cold, wet, or windy it might be!

Date:

Astronomy

Jun. 25, 2013 Rise Set
Actual Time 5:10 AM CDT 9:14 PM CDT
Civil Twilight 4:28 AM CDT 9:56 PM CDT
Nautical Twilight 3:30 AM CDT 10:54 PM CDT
Astronomical Twilight 1:44 AM CDT 12:39 AM CDT
Moon 10:43 PM CDT (6/25) 8:04 AM CDT (6/25)
Length of Visible Light 17h 27m
Length of Day
16h 04m
Waning Gibbous, 92% of the Moon is Illuminated
Jun 25
Waning Gibbous
Jun 29
Last Quarter
Jul 8
New
Jul 15
First Quarter
Jul 22
Full

Hourly Weather History & Observations

Time (CDT) Temp. Heat Index Dew Point Humidity Pressure Visibility Wind Dir Wind Speed Gust Speed Precip Events Conditions
12:12 AM 55.4 °F - 53.6 °F 94% 29.81 in 10.0 mi South 3.5 mph - N/A   Clear
12:32 AM 55.4 °F - 53.6 °F 94% 29.81 in 10.0 mi Calm Calm - N/A   Clear
12:52 AM 55.4 °F - 51.8 °F 88% 29.81 in 10.0 mi Calm Calm - N/A   Clear
1:12 AM 53.6 °F - 51.8 °F 94% 29.81 in 10.0 mi Calm Calm - N/A   Clear
1:32 AM 53.6 °F - 51.8 °F 94% 29.80 in 10.0 mi Calm Calm - N/A   Clear
1:52 AM 53.6 °F - 51.8 °F 94% 29.81 in 10.0 mi Calm Calm - N/A   Clear
2:12 AM 53.6 °F - 51.8 °F 94% 29.81 in 10.0 mi Calm Calm - N/A   Clear
2:32 AM 51.8 °F - 50.0 °F 94% 29.81 in 10.0 mi Calm Calm - N/A   Clear
2:52 AM 51.8 °F - 50.0 °F 94% 29.81 in 7.0 mi Calm Calm - N/A   Clear
3:12 AM 51.8 °F - 48.2 °F 88% 29.81 in 7.0 mi Calm Calm - N/A   Clear
3:32 AM 51.8 °F - 48.2 °F 88% 29.81 in 1.8 mi Calm Calm - N/A   Clear
3:52 AM 51.8 °F - 48.2 °F 88% 29.82 in 5.0 mi Calm Calm - N/A   Clear
4:12 AM 51.8 °F - 48.2 °F 88% 29.83 in 10.0 mi Calm Calm - N/A   Clear
4:32 AM 51.8 °F - 48.2 °F 88% 29.83 in 10.0 mi Calm Calm - N/A   Clear
4:52 AM 50.0 °F - 48.2 °F 94% 29.83 in 10.0 mi Calm Calm - N/A   Clear
5:12 AM 50.0 °F - 48.2 °F 94% 29.83 in 10.0 mi Calm Calm - N/A   Clear
5:32 AM 50.0 °F - 48.2 °F 94% 29.83 in 10.0 mi Calm Calm - N/A   Clear
5:52 AM 51.8 °F - 48.2 °F 88% 29.83 in 10.0 mi Calm Calm - N/A   Clear
6:12 AM 51.8 °F - 50.0 °F 94% 29.84 in 10.0 mi Calm Calm - N/A   Clear
6:32 AM 53.6 °F - 51.8 °F 94% 29.84 in 10.0 mi Calm Calm - N/A   Clear
6:52 AM 53.6 °F - 51.8 °F 94% 29.84 in 10.0 mi Calm Calm - N/A   Clear
7:12 AM 59.0 °F - 57.2 °F 94% 29.84 in 10.0 mi Calm Calm - N/A   Clear
7:32 AM 64.4 °F - 62.6 °F 94% 29.84 in 10.0 mi Calm Calm - N/A   Clear
7:52 AM 66.2 °F - 64.4 °F 94% 29.84 in 10.0 mi Calm Calm - N/A   Clear
8:12 AM 69.8 °F - 66.2 °F 88% 29.84 in 10.0 mi Calm Calm - N/A   Clear
8:32 AM 71.6 °F - 66.2 °F 83% 29.84 in 10.0 mi Calm Calm - N/A   Clear
8:52 AM 73.4 °F - 66.2 °F 78% 29.84 in 10.0 mi Calm Calm - N/A   Clear
9:12 AM 75.2 °F - 68.0 °F 78% 29.83 in 10.0 mi Calm Calm - N/A   Clear
9:32 AM 77.0 °F - 69.8 °F 78% 29.83 in 10.0 mi Calm Calm - N/A   Clear
9:52 AM 78.8 °F - 71.6 °F 78% 29.82 in 10.0 mi Calm Calm - N/A   Clear
10:12 AM 80.6 °F 85.4 °F 73.4 °F 79% 29.82 in 10.0 mi Calm Calm - N/A   Scattered Clouds
10:32 AM 80.6 °F 84.6 °F 71.6 °F 74% 29.82 in 10.0 mi Calm Calm - N/A   Scattered Clouds
10:52 AM 80.6 °F 82.7 °F 66.2 °F 61% 29.81 in 10.0 mi SSW 3.5 mph - N/A   Clear
11:12 AM 80.6 °F 82.3 °F 64.4 °F 58% 29.81 in 10.0 mi SSE 5.8 mph - N/A   Clear
11:32 AM 82.4 °F 82.9 °F 60.8 °F 48% 29.82 in 10.0 mi SSW 5.8 mph - N/A   Clear
11:52 AM 82.4 °F 82.5 °F 59.0 °F 45% 29.81 in 10.0 mi SE 5.8 mph - N/A   Clear
12:12 PM 84.2 °F 83.8 °F 59.0 °F 42% 29.81 in 10.0 mi SSW 6.9 mph - N/A   Clear
12:32 PM 84.2 °F 83.0 °F 55.4 °F 37% 29.82 in 10.0 mi SSE 3.5 mph - N/A   Clear
12:52 PM 84.2 °F 82.8 °F 53.6 °F 35% 29.82 in 10.0 mi SE 4.6 mph - N/A   Clear
1:12 PM 86.0 °F 84.5 °F 55.4 °F 35% 29.81 in 10.0 mi SW 4.6 mph - N/A   Clear
1:32 PM 86.0 °F 84.9 °F 57.2 °F 37% 29.81 in 10.0 mi Calm Calm - N/A   Clear
1:52 PM 86.0 °F 84.9 °F 57.2 °F 37% 29.80 in 10.0 mi South 6.9 mph - N/A   Scattered Clouds
2:12 PM 86.0 °F 84.9 °F 57.2 °F 37% 29.80 in 10.0 mi SSW 3.5 mph - N/A   Clear
2:32 PM 87.8 °F 85.7 °F 53.6 °F 31% 29.80 in 10.0 mi SW 4.6 mph - N/A   Clear
2:52 PM 87.8 °F 85.7 °F 53.6 °F 31% 29.80 in 10.0 mi South 4.6 mph - N/A   Clear
3:12 PM 87.8 °F - 51.8 °F 29% 29.80 in 10.0 mi Calm Calm - N/A   Clear
3:32 PM 87.8 °F 85.7 °F 53.6 °F 31% 29.80 in 10.0 mi South 8.1 mph - N/A   Clear
3:52 PM 87.8 °F 85.7 °F 53.6 °F 31% 29.79 in 10.0 mi Calm Calm - N/A   Clear
4:12 PM 87.8 °F 85.7 °F 53.6 °F 31% 29.79 in 10.0 mi SSW 3.5 mph - N/A   Clear
4:32 PM 89.6 °F 88.1 °F 57.2 °F 33% 29.78 in 10.0 mi Calm Calm - N/A   Clear
4:52 PM 87.8 °F 86.1 °F 55.4 °F 33% 29.77 in 10.0 mi South 3.5 mph - N/A   Clear
5:12 PM 87.8 °F 85.7 °F 53.6 °F 31% 29.77 in 10.0 mi SW 4.6 mph - N/A   Clear
5:32 PM 87.8 °F 85.7 °F 53.6 °F 31% 29.77 in 7.0 mi South 5.8 mph - N/A   Clear
5:52 PM 87.8 °F 85.7 °F 53.6 °F 31% 29.76 in 10.0 mi Calm Calm - N/A   Clear
6:12 PM 87.8 °F 85.7 °F 53.6 °F 31% 29.76 in 10.0 mi Calm Calm - N/A   Scattered Clouds
6:32 PM 87.8 °F 86.1 °F 55.4 °F 33% 29.75 in 10.0 mi Calm Calm - N/A   Clear
6:52 PM 87.8 °F 86.1 °F 55.4 °F 33% 29.75 in 10.0 mi Calm Calm - N/A   Clear
7:12 PM 87.8 °F 86.1 °F 55.4 °F 33% 29.74 in 10.0 mi South 3.5 mph - N/A   Clear
7:32 PM 86.0 °F 84.9 °F 57.2 °F 37% 29.74 in 10.0 mi Calm Calm - N/A   Clear
7:52 PM 84.2 °F 84.4 °F 60.8 °F 45% 29.74 in 10.0 mi Calm Calm - N/A   Clear
8:12 PM 80.6 °F 81.5 °F 60.8 °F 51% 29.74 in 10.0 mi Calm Calm - N/A   Clear
8:32 PM 75.2 °F - 60.8 °F 61% 29.74 in 10.0 mi Calm Calm - N/A   Clear
8:52 PM 71.6 °F - 59.0 °F 64% 29.73 in 10.0 mi Calm Calm - N/A   Clear
9:12 PM 69.8 °F - 60.8 °F 73% 29.73 in 10.0 mi Calm Calm - N/A   Clear
9:32 PM 66.2 °F - 59.0 °F 78% 29.73 in 10.0 mi Calm Calm - N/A   Clear
9:52 PM 64.4 °F - 57.2 °F 77% 29.74 in 10.0 mi Calm Calm - N/A   Clear
10:12 PM 62.6 °F - 57.2 °F 82% 29.75 in 10.0 mi Calm Calm - N/A   Clear
10:32 PM 62.6 °F - 57.2 °F 82% 29.75 in 10.0 mi Calm Calm - N/A   Clear
10:52 PM 62.6 °F - 57.2 °F 82% 29.74 in 10.0 mi Calm Calm - N/A   Clear
11:12 PM 60.8 °F - 57.2 °F 88% 29.74 in 10.0 mi Calm Calm - N/A   Clear
11:32 PM 60.8 °F - 57.2 °F 88% 29.75 in 10.0 mi Calm Calm - N/A   Clear
11:52 PM 60.8 °F - 57.2 °F 88% 29.75 in 10.0 mi Calm Calm - N/A   Clear